Flag for Norway Weather past 2 weeks in Fetsund, Norway

Now
43 °F

Passing clouds.


Feels Like: 43 °F
Forecast: 35 / 63 °F
Wind: No wind

Location: Oslo-Blindern


UV Index: 0 (Low)

Visibility: 47 mi


Pressure: 30.28 "Hg

Humidity: 72%

Dew point: 34 °F

Location of FetsundLocation

Historic Weather in Fetsund

°F

Fetsund temperature yesterday

Maximum temperature yesterday: 53 °F (at 5:00 PM)
Minimum temperature yesterday: 40 °F (at 6:00 AM)
Average temperature yesterday: 46 °F

Past Weeks' High & Low Weather Summary

 TemperatureHumidityPressure
High56 °F (Apr 7, 6:00 PM)99% (Apr 6, 1:00 AM)30.33 "Hg (Apr 6, 1:00 AM)
Low30 °F (Apr 5, 6:00 AM)24% (Apr 14, 3:00 PM)29.32 "Hg (Apr 13, 6:00 AM)
Average42 °F73%29.85 "Hg
* Reported Apr 4 7:00 AM — Apr 19 7:00 AM, Fetsund, Weather by CustomWeather, © 2014

Note: Actual official high and low records may vary slightly from our data, if they occured in-between our weather recording intervals... More about our weather records

Advertising

Historic Weather Conditions — Data for Previous 24 hours

 ConditionsComfort  
Time TempWeatherWind HumidityBarometerVisibility
7:00 AM
Apr 19
35 °FChilly.No wind92%30.27 "HgN/A
6:00 AM33 °FChilly.1 mph92%30.27 "HgN/A
5:00 AM34 °FClear.2 mph89%30.26 "Hg47 mi
4:00 AM34 °FChilly.1 mph88%30.26 "HgN/A
3:00 AM35 °FChilly.3 mph86%30.26 "HgN/A
2:00 AM36 °FClear.3 mph81%30.25 "Hg47 mi
1:00 AM38 °FChilly.3 mph77%30.23 "HgN/A
12:00 AM39 °FChilly.3 mph72%30.22 "HgN/A
10:00 PM
Apr 18
43 °FQuite cool.3 mph62%30.16 "HgN/A
9:00 PM45 °FQuite cool.2 mph61%30.14 "HgN/A
8:00 PM51 °FCool.2 mph42%30.11 "HgN/A
7:00 PM53 °FCool.3 mph40%30.08 "HgN/A
6:00 PM53 °FCool.5 mph40%30.06 "HgN/A
5:00 PM53 °FCool.5 mph37%30.04 "HgN/A
4:00 PM53 °FCool.7 mph36%30.02 "HgN/A
3:00 PM52 °FCool.7 mph38%30.00 "HgN/A
2:00 PM51 °FCool.8 mph39%29.97 "HgN/A
1:00 PM50 °FCool.7 mph37%29.95 "HgN/A
12:00 PM47 °FCool.8 mph41%29.93 "HgN/A
11:00 AM46 °FCool.7 mph43%29.90 "HgN/A
10:00 AM45 °FQuite cool.8 mph45%29.86 "HgN/A
9:00 AM44 °FQuite cool.9 mph49%29.80 "HgN/A
Weather by CustomWeather, © 2014

See weather overview